Time,TemperatureF,DewpointF,PressureIn,WindDirection,WindDirectionDegrees,WindSpeedMPH,WindSpeedGustMPH,Humidity,HourlyPrecipIn,Conditions,Clouds,dailyrainin,SoftwareType,DateUTC
2013-04-15 00:00:00,40.7,34.7,29.92,SSE,155,5.0,8.0,79,0.00,,,0.02,Wunderground v.1.15,2013-04-15 04:00:00,
2013-04-15 00:01:00,40.7,34.7,29.92,East,98,6.0,8.0,79,0.00,,,0.00,Wunderground v.1.15,2013-04-15 04:01:00,
2013-04-15 00:03:00,40.7,34.7,29.92,SSE,148,6.0,8.0,79,0.00,,,0.00,Wunderground v.1.15,2013-04-15 04:03:00,
2013-04-15 00:04:00,40.7,34.7,29.92,ESE,109,6.0,8.0,79,0.00,,,0.00,Wunderground v.1.15,2013-04-15 04:04:00,
2013-04-15 00:06:00,40.7,34.7,29.92,SE,135,7.0,-999.0,79,0.00,,,0.03,Wunderground v.1.15,2013-04-15 04:06:00,
2013-04-15 00:09:00,40.7,34.7,29.92,SE,136,6.0,9.0,79,0.00,,,0.00,Wunderground v.1.15,2013-04-15 04:09:00,
2013-04-15 00:11:00,40.7,34.7,29.91,SE,135,8.0,-999.0,79,0.00,,,0.03,Wunderground v.1.15,2013-04-15 04:11:00,
2013-04-15 00:14:00,40.7,34.7,29.91,ESE,107,7.0,7.0,79,0.00,,,0.00,Wunderground v.1.15,2013-04-15 04:14:00,
2013-04-15 00:16:00,40.7,34.7,29.91,ESE,113,7.0,-999.0,79,0.00,,,0.03,Wunderground v.1.15,2013-04-15 04:16:00,
2013-04-15 00:20:00,40.7,34.7,29.91,East,94,7.0,7.0,79,0.00,,,0.00,Wunderground v.1.15,2013-04-15 04:20:00,
2013-04-15 00:21:00,40.7,34.7,29.91,ESE,113,6.0,-999.0,79,0.00,,,0.03,Wunderground v.1.15,2013-04-15 04:21:00,
2013-04-15 00:25:00,40.7,34.7,29.91,SE,129,7.0,7.0,79,0.00,,,0.00,Wunderground v.1.15,2013-04-15 04:25:00,
2013-04-15 00:26:00,40.7,34.7,29.91,SE,135,3.0,-999.0,79,0.00,,,0.03,Wunderground v.1.15,2013-04-15 04:26:00,
2013-04-15 00:31:00,40.7,35.0,29.91,East,94,6.0,7.0,80,0.00,,,0.00,Wunderground v.1.15,2013-04-15 04:31:00,
2013-04-15 00:36:00,40.6,34.6,29.91,South,191,5.0,8.0,79,0.00,,,0.00,Wunderground v.1.15,2013-04-15 04:36:00,
2013-04-15 00:41:00,40.6,34.9,29.91,ESE,113,6.0,-999.0,80,0.00,,,0.03,Wunderground v.1.15,2013-04-15 04:41:00,
2013-04-15 00:42:00,40.6,34.9,29.91,East,96,5.0,6.0,80,0.00,,,0.00,Wunderground v.1.15,2013-04-15 04:42:00,
2013-04-15 00:46:00,40.5,34.8,29.91,ESE,113,4.0,-999.0,80,0.00,,,0.03,Wunderground v.1.15,2013-04-15 04:46:00,
2013-04-15 00:47:00,40.5,34.8,29.91,ESE,111,5.0,8.0,80,0.00,,,0.00,Wunderground v.1.15,2013-04-15 04:47:00,
2013-04-15 00:51:00,40.5,34.8,29.91,East,90,6.0,-999.0,80,0.00,,,0.03,Wunderground v.1.15,2013-04-15 04:51:00,
2013-04-15 00:53:00,40.5,34.8,29.91,East,82,6.0,8.0,80,0.00,,,0.00,Wunderground v.1.15,2013-04-15 04:53:00,
2013-04-15 00:56:00,40.6,34.9,29.91,SE,135,7.0,-999.0,80,0.00,,,0.03,Wunderground v.1.15,2013-04-15 04:56:00,
2013-04-15 00:58:00,40.5,34.8,29.91,SE,139,6.0,8.0,80,0.00,,,0.00,Wunderground v.1.15,2013-04-15 04:58:00,
2013-04-15 01:01:00,40.5,34.8,29.91,ESE,113,5.0,-999.0,80,0.00,,,0.03,Wunderground v.1.15,2013-04-15 05:01:00,
2013-04-15 01:04:00,40.5,34.8,29.91,East,80,4.0,6.0,80,0.00,,,0.00,Wunderground v.1.15,2013-04-15 05:04:00,
2013-04-15 01:06:00,40.4,34.7,29.91,ESE,113,2.0,-999.0,80,0.00,,,0.03,Wunderground v.1.15,2013-04-15 05:06:00,
2013-04-15 01:10:00,40.4,35.0,29.90,SE,141,4.0,7.0,81,0.00,,,0.00,Wunderground v.1.15,2013-04-15 05:10:00,
2013-04-15 01:11:00,40.5,35.1,29.90,ESE,113,7.0,-999.0,81,0.00,,,0.03,Wunderground v.1.15,2013-04-15 05:11:00,
2013-04-15 01:15:00,40.5,35.1,29.90,ESE,118,5.0,9.0,81,0.00,,,0.00,Wunderground v.1.15,2013-04-15 05:15:00,
2013-04-15 01:16:00,40.5,35.1,29.90,East,90,9.0,-999.0,81,0.00,,,0.03,Wunderground v.1.15,2013-04-15 05:16:00,
2013-04-15 01:21:00,40.6,34.9,29.91,SE,129,5.0,10.0,80,0.00,,,0.00,Wunderground v.1.15,2013-04-15 05:21:00,
2013-04-15 01:26:00,40.7,35.0,29.90,SE,135,5.0,-999.0,80,0.00,,,0.03,Wunderground v.1.15,2013-04-15 05:26:00,
2013-04-15 01:27:00,40.7,35.0,29.90,ESE,107,4.0,10.0,80,0.00,,,0.00,Wunderground v.1.15,2013-04-15 05:27:00,
2013-04-15 01:31:00,40.7,35.0,29.90,SE,135,1.0,-999.0,80,0.00,,,0.03,Wunderground v.1.15,2013-04-15 05:31:00,
2013-04-15 01:33:00,40.7,35.0,29.90,SE,129,5.0,11.0,80,0.00,,,0.00,Wunderground v.1.15,2013-04-15 05:33:00,
2013-04-15 01:36:00,40.8,35.1,29.90,ESE,113,3.0,-999.0,80,0.00,,,0.03,Wunderground v.1.15,2013-04-15 05:36:00,
2013-04-15 01:39:00,40.8,35.1,29.90,ESE,123,4.0,11.0,80,0.00,,,0.00,Wunderground v.1.15,2013-04-15 05:39:00,
2013-04-15 01:41:00,40.7,35.0,29.90,ESE,113,4.0,-999.0,80,0.00,,,0.03,Wunderground v.1.15,2013-04-15 05:41:00,
2013-04-15 01:45:00,40.7,35.0,29.90,SE,141,3.0,5.0,80,0.00,,,0.00,Wunderground v.1.15,2013-04-15 05:45:00,
2013-04-15 01:46:00,40.7,35.0,29.91,ESE,113,5.0,-999.0,80,0.00,,,0.03,Wunderground v.1.15,2013-04-15 05:46:00,
2013-04-15 01:50:00,40.7,35.0,29.90,SE,126,3.0,7.0,80,0.00,,,0.00,Wunderground v.1.15,2013-04-15 05:50:00,
2013-04-15 01:51:00,40.7,35.0,29.90,SE,135,4.0,-999.0,80,0.00,,,0.03,Wunderground v.1.15,2013-04-15 05:51:00,
2013-04-15 01:56:00,40.7,35.0,29.90,SE,146,3.0,7.0,80,0.00,,,0.00,Wunderground v.1.15,2013-04-15 05:56:00,
2013-04-15 02:01:00,40.7,35.0,29.90,East,92,3.0,4.0,80,0.00,,,0.00,Wunderground v.1.15,2013-04-15 06:01:00,
2013-04-15 02:06:00,40.7,35.0,29.90,N/A,-737280,0.0,-999.0,80,0.00,,,0.03,Wunderground v.1.15,2013-04-15 06:06:00,
2013-04-15 02:07:00,40.7,35.0,29.90,ESE,120,3.0,5.0,80,0.00,,,0.00,Wunderground v.1.15,2013-04-15 06:07:00,
2013-04-15 02:11:00,40.7,35.0,29.90,SSE,158,1.0,-999.0,80,0.00,,,0.03,Wunderground v.1.15,2013-04-15 06:11:00,
2013-04-15 02:13:00,40.7,35.0,29.90,ESE,109,3.0,5.0,80,0.00,,,0.00,Wunderground v.1.15,2013-04-15 06:13:00,
2013-04-15 02:16:00,40.7,35.0,29.90,SE,135,3.0,-999.0,80,0.00,,,0.03,Wunderground v.1.15,2013-04-15 06:16:00,
2013-04-15 02:18:00,40.7,35.0,29.90,ESE,104,4.0,8.0,80,0.00,,,0.00,Wunderground v.1.15,2013-04-15 06:18:00,
2013-04-15 02:21:00,40.7,35.0,29.90,ESE,113,4.0,-999.0,80,0.00,,,0.03,Wunderground v.1.15,2013-04-15 06:21:00,
2013-04-15 02:24:00,40.7,35.0,29.90,SE,130,4.0,4.0,80,0.00,,,0.00,Wunderground v.1.15,2013-04-15 06:24:00,
2013-04-15 02:26:00,40.7,35.0,29.90,ESE,113,5.0,-999.0,80,0.00,,,0.03,Wunderground v.1.15,2013-04-15 06:26:00,
2013-04-15 02:30:00,40.6,35.2,29.90,SE,128,3.0,3.0,81,0.00,,,0.00,Wunderground v.1.15,2013-04-15 06:30:00,
2013-04-15 02:31:00,40.6,35.2,29.90,ESE,113,2.0,-999.0,81,0.00,,,0.03,Wunderground v.1.15,2013-04-15 06:31:00,
2013-04-15 02:35:00,40.6,35.2,29.90,SSW,198,2.0,3.0,81,0.00,,,0.00,Wunderground v.1.15,2013-04-15 06:35:00,
2013-04-15 02:36:00,40.6,35.2,29.90,ESE,113,3.0,-999.0,81,0.00,,,0.03,Wunderground v.1.15,2013-04-15 06:36:00,
2013-04-15 02:41:00,40.6,35.2,29.90,ESE,120,3.0,9.0,81,0.00,,,0.00,Wunderground v.1.15,2013-04-15 06:41:00,
2013-04-15 02:46:00,40.5,35.1,29.90,SE,135,5.0,-999.0,81,0.00,,,0.03,Wunderground v.1.15,2013-04-15 06:46:00,
2013-04-15 02:47:00,40.5,35.1,29.90,SE,136,4.0,9.0,81,0.00,,,0.00,Wunderground v.1.15,2013-04-15 06:47:00,
2013-04-15 02:51:00,40.5,35.1,29.89,SE,135,6.0,-999.0,81,0.00,,,0.03,Wunderground v.1.15,2013-04-15 06:51:00,
2013-04-15 02:53:00,40.5,35.1,29.89,ESE,118,4.0,4.0,81,0.00,,,0.00,Wunderground v.1.15,2013-04-15 06:53:00,
2013-04-15 02:56:00,40.5,35.1,29.89,SE,135,5.0,-999.0,81,0.00,,,0.03,Wunderground v.1.15,2013-04-15 06:56:00,
2013-04-15 02:58:00,40.5,35.1,29.89,ESE,111,5.0,8.0,81,0.00,,,0.00,Wunderground v.1.15,2013-04-15 06:58:00,
2013-04-15 03:01:00,40.5,35.1,29.89,ESE,113,4.0,-999.0,81,0.00,,,0.03,Wunderground v.1.15,2013-04-15 07:01:00,
2013-04-15 03:03:00,40.4,35.0,29.89,ESE,115,5.0,6.0,81,0.00,,,0.00,Wunderground v.1.15,2013-04-15 07:03:00,
2013-04-15 03:06:00,40.4,35.0,29.89,ESE,113,4.0,-999.0,81,0.00,,,0.03,Wunderground v.1.15,2013-04-15 07:06:00,
2013-04-15 03:11:00,40.4,35.0,29.89,South,180,2.0,-999.0,81,0.00,,,0.03,Wunderground v.1.15,2013-04-15 07:11:00,
2013-04-15 03:16:00,40.3,35.2,29.89,SE,135,4.0,-999.0,82,0.00,,,0.03,Wunderground v.1.15,2013-04-15 07:16:00,
2013-04-15 03:21:00,40.3,35.2,29.89,SE,135,3.0,-999.0,82,0.00,,,0.03,Wunderground v.1.15,2013-04-15 07:21:00,
2013-04-15 03:26:00,40.4,35.3,29.89,SE,135,3.0,-999.0,82,0.00,,,0.03,Wunderground v.1.15,2013-04-15 07:26:00,
2013-04-15 03:31:00,40.4,35.3,29.89,SE,135,5.0,-999.0,82,0.00,,,0.03,Wunderground v.1.15,2013-04-15 07:31:00,
2013-04-15 03:36:00,40.4,35.3,29.89,ESE,113,4.0,-999.0,82,0.00,,,0.03,Wunderground v.1.15,2013-04-15 07:36:00,
2013-04-15 03:41:00,40.4,35.3,29.89,SE,135,3.0,-999.0,82,0.00,,,0.03,Wunderground v.1.15,2013-04-15 07:41:00,
2013-04-15 03:42:00,40.4,35.3,29.89,SE,145,3.0,6.0,82,0.00,,,0.00,Wunderground v.1.15,2013-04-15 07:42:00,
2013-04-15 03:43:00,40.4,35.3,29.89,South,179,3.0,6.0,82,0.00,,,0.00,Wunderground v.1.15,2013-04-15 07:43:00,
2013-04-15 03:46:00,40.5,35.4,29.89,SE,138,3.0,6.0,82,0.00,,,0.00,Wunderground v.1.15,2013-04-15 07:46:00,
2013-04-15 03:48:00,40.5,35.4,29.90,SE,146,3.0,6.0,82,0.00,,,0.00,Wunderground v.1.15,2013-04-15 07:48:00,
2013-04-15 03:50:00,40.5,35.4,29.90,SSE,150,3.0,4.0,82,0.00,,,0.00,Wunderground v.1.15,2013-04-15 07:50:00,
2013-04-15 03:51:00,40.5,35.4,29.90,SSE,158,2.0,-999.0,82,0.00,,,0.03,Wunderground v.1.15,2013-04-15 07:51:00,
2013-04-15 03:53:00,40.5,35.4,29.90,East,101,3.0,4.0,82,0.00,,,0.00,Wunderground v.1.15,2013-04-15 07:53:00,
2013-04-15 03:56:00,40.6,35.5,29.90,SSE,158,3.0,-999.0,82,0.00,,,0.03,Wunderground v.1.15,2013-04-15 07:56:00,
2013-04-15 03:58:00,40.6,35.5,29.90,ESE,107,3.0,7.0,82,0.00,,,0.00,Wunderground v.1.15,2013-04-15 07:58:00,
2013-04-15 04:01:00,40.6,35.5,29.90,SSE,158,3.0,-999.0,82,0.00,,,0.03,Wunderground v.1.15,2013-04-15 08:01:00,
2013-04-15 04:03:00,40.7,35.6,29.90,SE,130,3.0,5.0,82,0.00,,,0.00,Wunderground v.1.15,2013-04-15 08:03:00,
2013-04-15 04:06:00,40.7,35.6,29.90,SE,135,0.0,-999.0,82,0.00,,,0.03,Wunderground v.1.15,2013-04-15 08:06:00,
2013-04-15 04:09:00,40.6,35.5,29.90,East,84,2.0,5.0,82,0.00,,,0.00,Wunderground v.1.15,2013-04-15 08:09:00,
2013-04-15 04:11:00,40.6,35.5,29.90,ESE,113,1.0,-999.0,82,0.00,,,0.03,Wunderground v.1.15,2013-04-15 08:11:00,
2013-04-15 04:15:00,40.6,35.5,29.91,SE,130,2.0,4.0,82,0.00,,,0.00,Wunderground v.1.15,2013-04-15 08:15:00,
2013-04-15 04:16:00,40.7,35.6,29.91,SE,135,3.0,-999.0,82,0.00,,,0.03,Wunderground v.1.15,2013-04-15 08:16:00,
2013-04-15 04:21:00,40.7,35.6,29.90,ESE,107,2.0,2.0,82,0.00,,,0.00,Wunderground v.1.15,2013-04-15 08:21:00,
2013-04-15 04:26:00,40.7,35.6,29.90,East,90,1.0,-999.0,82,0.00,,,0.03,Wunderground v.1.15,2013-04-15 08:26:00,
2013-04-15 04:27:00,40.7,35.6,29.91,East,86,2.0,6.0,82,0.00,,,0.00,Wunderground v.1.15,2013-04-15 08:27:00,
2013-04-15 04:31:00,40.7,35.6,29.91,SSE,158,3.0,-999.0,82,0.00,,,0.03,Wunderground v.1.15,2013-04-15 08:31:00,
2013-04-15 04:32:00,40.7,35.6,29.91,SE,124,3.0,5.0,82,0.00,,,0.00,Wunderground v.1.15,2013-04-15 08:32:00,
2013-04-15 04:36:00,40.7,35.6,29.91,SE,124,3.0,5.0,82,0.00,,,0.00,Wunderground v.1.15,2013-04-15 08:36:00,
2013-04-15 04:40:00,40.7,35.9,29.91,SE,137,3.0,3.0,83,0.00,,,0.00,Wunderground v.1.15,2013-04-15 08:40:00,
2013-04-15 04:41:00,40.7,35.9,29.91,SE,144,3.0,3.0,83,0.00,,,0.00,Wunderground v.1.15,2013-04-15 08:41:00,
2013-04-15 04:42:00,40.7,35.9,29.91,East,97,3.0,3.0,83,0.00,,,0.00,Wunderground v.1.15,2013-04-15 08:42:00,
2013-04-15 04:44:00,40.7,35.6,29.91,East,94,2.0,3.0,82,0.00,,,0.00,Wunderground v.1.15,2013-04-15 08:44:00,
2013-04-15 04:46:00,40.7,35.9,29.91,SE,135,1.0,-999.0,83,0.00,,,0.03,Wunderground v.1.15,2013-04-15 08:46:00,
2013-04-15 04:50:00,40.6,35.8,29.91,SE,132,2.0,2.0,83,0.00,,,0.00,Wunderground v.1.15,2013-04-15 08:50:00,
2013-04-15 04:51:00,40.6,35.8,29.92,East,90,5.0,-999.0,83,0.00,,,0.03,Wunderground v.1.15,2013-04-15 08:51:00,
2013-04-15 04:55:00,40.6,35.8,29.92,SSW,201,2.0,4.0,83,0.00,,,0.00,Wunderground v.1.15,2013-04-15 08:55:00,
2013-04-15 04:56:00,40.6,35.8,29.92,SE,135,2.0,-999.0,83,0.00,,,0.03,Wunderground v.1.15,2013-04-15 08:56:00,
2013-04-15 05:00:00,40.6,35.8,29.92,ESE,111,2.0,4.0,83,0.00,,,0.00,Wunderground v.1.15,2013-04-15 09:00:00,
2013-04-15 05:01:00,40.6,35.8,29.92,ESE,113,5.0,-999.0,83,0.00,,,0.03,Wunderground v.1.15,2013-04-15 09:01:00,
2013-04-15 05:06:00,40.6,35.8,29.92,ESE,112,2.0,4.0,83,0.00,,,0.00,Wunderground v.1.15,2013-04-15 09:06:00,
2013-04-15 05:11:00,40.5,35.7,29.93,ESE,113,4.0,-999.0,83,0.00,,,0.03,Wunderground v.1.15,2013-04-15 09:11:00,
2013-04-15 05:12:00,40.5,35.7,29.92,ESE,110,2.0,5.0,83,0.00,,,0.00,Wunderground v.1.15,2013-04-15 09:12:00,
2013-04-15 05:16:00,40.4,35.6,29.92,SW,225,1.0,-999.0,83,0.00,,,0.03,Wunderground v.1.15,2013-04-15 09:16:00,
2013-04-15 05:18:00,40.4,35.6,29.93,South,180,3.0,5.0,83,0.00,,,0.00,Wunderground v.1.15,2013-04-15 09:18:00,
2013-04-15 05:21:00,40.4,35.6,29.93,ESE,113,1.0,-999.0,83,0.00,,,0.03,Wunderground v.1.15,2013-04-15 09:21:00,
2013-04-15 05:23:00,40.4,35.6,29.93,ESE,123,2.0,2.0,83,0.00,,,0.00,Wunderground v.1.15,2013-04-15 09:23:00,
2013-04-15 05:26:00,40.3,35.8,29.93,SSE,158,1.0,-999.0,84,0.00,,,0.03,Wunderground v.1.15,2013-04-15 09:26:00,
2013-04-15 05:28:00,40.3,35.8,29.93,SE,129,1.0,3.0,84,0.00,,,0.00,Wunderground v.1.15,2013-04-15 09:28:00,
2013-04-15 05:31:00,40.2,35.8,29.93,N/A,-737280,0.0,-999.0,84,0.00,,,0.03,Wunderground v.1.15,2013-04-15 09:31:00,
2013-04-15 05:34:00,40.2,35.8,29.93,South,174,0.0,1.0,84,0.00,,,0.00,Wunderground v.1.15,2013-04-15 09:34:00,
2013-04-15 05:36:00,40.2,35.8,29.93,SSE,158,1.0,-999.0,84,0.00,,,0.03,Wunderground v.1.15,2013-04-15 09:36:00,
2013-04-15 05:40:00,40.2,35.8,29.93,SE,146,1.0,1.0,84,0.00,,,0.00,Wunderground v.1.15,2013-04-15 09:40:00,
2013-04-15 05:41:00,40.2,35.8,29.93,South,180,1.0,-999.0,84,0.00,,,0.03,Wunderground v.1.15,2013-04-15 09:41:00,
2013-04-15 05:45:00,40.2,35.8,29.93,SE,146,1.0,6.0,84,0.00,,,0.00,Wunderground v.1.15,2013-04-15 09:45:00,
2013-04-15 05:46:00,40.3,35.8,29.93,SSE,158,3.0,-999.0,84,0.00,,,0.03,Wunderground v.1.15,2013-04-15 09:46:00,
2013-04-15 05:51:00,40.4,35.9,29.93,SSE,162,2.0,2.0,84,0.00,,,0.00,Wunderground v.1.15,2013-04-15 09:51:00,
2013-04-15 05:56:00,40.4,35.9,29.93,SE,135,2.0,-999.0,84,0.00,,,0.03,Wunderground v.1.15,2013-04-15 09:56:00,
2013-04-15 05:57:00,40.4,35.9,29.93,South,184,1.0,3.0,84,0.00,,,0.00,Wunderground v.1.15,2013-04-15 09:57:00,
2013-04-15 06:01:00,40.4,35.9,29.93,South,180,1.0,-999.0,84,0.00,,,0.03,Wunderground v.1.15,2013-04-15 10:01:00,
2013-04-15 06:02:00,40.4,35.9,29.94,SSE,163,1.0,2.0,84,0.00,,,0.00,Wunderground v.1.15,2013-04-15 10:02:00,
2013-04-15 06:06:00,40.3,35.8,29.93,SE,135,4.0,-999.0,84,0.00,,,0.03,Wunderground v.1.15,2013-04-15 10:06:00,
2013-04-15 06:08:00,40.3,36.1,29.93,South,171,1.0,4.0,85,0.00,,,0.00,Wunderground v.1.15,2013-04-15 10:08:00,
2013-04-15 06:11:00,40.3,36.1,29.93,ESE,113,3.0,-999.0,85,0.00,,,0.03,Wunderground v.1.15,2013-04-15 10:11:00,
2013-04-15 06:14:00,40.3,36.1,29.93,SSW,205,2.0,3.0,85,0.00,,,0.00,Wunderground v.1.15,2013-04-15 10:14:00,
2013-04-15 06:16:00,40.2,35.8,29.93,SE,135,0.0,-999.0,84,0.00,,,0.03,Wunderground v.1.15,2013-04-15 10:16:00,
2013-04-15 06:20:00,40.2,35.8,29.93,WSW,238,1.0,5.0,84,0.00,,,0.00,Wunderground v.1.15,2013-04-15 10:20:00,
2013-04-15 06:21:00,40.1,36.0,29.93,SSE,158,2.0,-999.0,85,0.00,,,0.03,Wunderground v.1.15,2013-04-15 10:21:00,
2013-04-15 06:26:00,40.0,35.9,29.93,ESE,117,1.0,5.0,85,0.00,,,0.00,Wunderground v.1.15,2013-04-15 10:26:00,
2013-04-15 06:31:00,39.9,35.8,29.93,SE,138,1.0,1.0,85,0.00,,,0.00,Wunderground v.1.15,2013-04-15 10:31:00,
2013-04-15 06:36:00,39.9,35.8,29.92,SE,139,2.0,3.0,85,0.00,,,0.00,Wunderground v.1.15,2013-04-15 10:36:00,
2013-04-15 06:41:00,40.0,35.9,29.92,SSE,158,3.0,-999.0,85,0.00,,,0.03,Wunderground v.1.15,2013-04-15 10:41:00,
2013-04-15 06:42:00,40.0,35.9,29.93,South,188,2.0,3.0,85,0.00,,,0.00,Wunderground v.1.15,2013-04-15 10:42:00,
2013-04-15 06:46:00,40.0,35.9,29.93,East,90,4.0,-999.0,85,0.00,,,0.03,Wunderground v.1.15,2013-04-15 10:46:00,
2013-04-15 06:47:00,40.0,35.9,29.93,SSE,159,2.0,5.0,85,0.00,,,0.00,Wunderground v.1.15,2013-04-15 10:47:00,
2013-04-15 06:51:00,40.0,36.2,29.93,SE,135,2.0,-999.0,86,0.00,,,0.03,Wunderground v.1.15,2013-04-15 10:51:00,
2013-04-15 06:52:00,40.0,36.2,29.93,SE,145,3.0,3.0,86,0.00,,,0.00,Wunderground v.1.15,2013-04-15 10:52:00,
2013-04-15 06:56:00,40.1,36.2,29.93,SE,135,3.0,-999.0,86,0.00,,,0.03,Wunderground v.1.15,2013-04-15 10:56:00,
2013-04-15 06:58:00,40.1,36.0,29.92,SE,128,3.0,5.0,85,0.00,,,0.00,Wunderground v.1.15,2013-04-15 10:58:00,
2013-04-15 07:01:00,40.1,36.2,29.93,ESE,113,1.0,-999.0,86,0.00,,,0.03,Wunderground v.1.15,2013-04-15 11:01:00,
2013-04-15 07:03:00,40.2,36.3,29.93,SE,142,3.0,3.0,86,0.00,,,0.00,Wunderground v.1.15,2013-04-15 11:03:00,
2013-04-15 07:06:00,40.3,36.4,29.93,SE,135,3.0,-999.0,86,0.00,,,0.03,Wunderground v.1.15,2013-04-15 11:06:00,
2013-04-15 07:09:00,40.4,36.5,29.93,ESE,116,3.0,5.0,86,0.00,,,0.00,Wunderground v.1.15,2013-04-15 11:09:00,
2013-04-15 07:11:00,40.5,36.6,29.92,SE,135,6.0,-999.0,86,0.00,,,0.03,Wunderground v.1.15,2013-04-15 11:11:00,
2013-04-15 07:15:00,40.6,36.4,29.92,South,173,4.0,8.0,85,0.00,,,0.00,Wunderground v.1.15,2013-04-15 11:15:00,
2013-04-15 07:16:00,40.6,36.4,29.92,SE,135,2.0,-999.0,85,0.00,,,0.03,Wunderground v.1.15,2013-04-15 11:16:00,
2013-04-15 07:20:00,40.8,36.6,29.92,SSE,147,4.0,4.0,85,0.00,,,0.00,Wunderground v.1.15,2013-04-15 11:20:00,
2013-04-15 07:21:00,40.9,36.7,29.92,SE,135,4.0,-999.0,85,0.00,,,0.03,Wunderground v.1.15,2013-04-15 11:21:00,
2013-04-15 07:26:00,41.2,37.0,29.92,ESE,113,3.0,-999.0,85,0.00,,,0.03,Wunderground v.1.15,2013-04-15 11:26:00,
2013-04-15 07:27:00,41.2,37.0,29.92,SSE,152,4.0,8.0,85,0.00,,,0.00,Wunderground v.1.15,2013-04-15 11:27:00,
2013-04-15 07:31:00,41.5,37.0,29.92,SE,135,3.0,-999.0,84,0.00,,,0.03,Wunderground v.1.15,2013-04-15 11:31:00,
2013-04-15 07:33:00,41.6,37.1,29.92,ESE,111,4.0,9.0,84,0.00,,,0.00,Wunderground v.1.15,2013-04-15 11:33:00,
2013-04-15 07:36:00,41.8,37.3,29.92,SE,135,3.0,-999.0,84,0.00,,,0.03,Wunderground v.1.15,2013-04-15 11:36:00,
2013-04-15 07:39:00,42.0,37.5,29.92,SE,146,5.0,9.0,84,0.00,,,0.00,Wunderground v.1.15,2013-04-15 11:39:00,
2013-04-15 07:41:00,42.2,37.7,29.92,ESE,113,2.0,-999.0,84,0.00,,,0.03,Wunderground v.1.15,2013-04-15 11:41:00,
2013-04-15 07:44:00,42.4,37.6,29.92,ESE,109,3.0,5.0,83,0.00,,,0.00,Wunderground v.1.15,2013-04-15 11:44:00,
2013-04-15 07:46:00,42.5,37.7,29.92,SSE,158,4.0,-999.0,83,0.00,,,0.03,Wunderground v.1.15,2013-04-15 11:46:00,
2013-04-15 07:50:00,42.8,38.0,29.92,SE,136,4.0,4.0,83,0.00,,,0.00,Wunderground v.1.15,2013-04-15 11:50:00,
2013-04-15 07:51:00,42.9,37.8,29.92,SE,135,6.0,-999.0,82,0.00,,,0.03,Wunderground v.1.15,2013-04-15 11:51:00,
2013-04-15 07:56:00,43.1,38.0,29.92,ESE,111,4.0,7.0,82,0.00,,,0.00,Wunderground v.1.15,2013-04-15 11:56:00,
2013-04-15 08:01:00,43.5,38.4,29.92,SE,135,4.0,-999.0,82,0.00,,,0.03,Wunderground v.1.15,2013-04-15 12:01:00,
2013-04-15 08:02:00,43.6,38.5,29.92,South,173,4.0,4.0,82,0.00,,,0.00,Wunderground v.1.15,2013-04-15 12:02:00,
2013-04-15 08:06:00,43.9,38.8,29.92,SE,135,4.0,-999.0,82,0.00,,,0.03,Wunderground v.1.15,2013-04-15 12:06:00,
2013-04-15 08:07:00,43.9,38.4,29.92,SE,137,4.0,5.0,81,0.00,,,0.00,Wunderground v.1.15,2013-04-15 12:07:00,
2013-04-15 08:11:00,44.1,38.6,29.92,SE,135,1.0,-999.0,81,0.00,,,0.03,Wunderground v.1.15,2013-04-15 12:11:00,
2013-04-15 08:13:00,44.2,38.7,29.93,SE,132,3.0,4.0,81,0.00,,,0.00,Wunderground v.1.15,2013-04-15 12:13:00,
2013-04-15 08:16:00,44.3,38.8,29.93,ESE,113,2.0,-999.0,81,0.00,,,0.03,Wunderground v.1.15,2013-04-15 12:16:00,
2013-04-15 08:19:00,44.5,39.0,29.93,SE,139,3.0,6.0,81,0.00,,,0.00,Wunderground v.1.15,2013-04-15 12:19:00,
2013-04-15 08:21:00,44.6,39.1,29.93,South,180,1.0,-999.0,81,0.00,,,0.03,Wunderground v.1.15,2013-04-15 12:21:00,
2013-04-15 08:24:00,44.7,39.2,29.93,SE,142,3.0,6.0,81,0.00,,,0.00,Wunderground v.1.15,2013-04-15 12:24:00,
2013-04-15 08:26:00,44.8,39.0,29.92,SE,135,2.0,-999.0,80,0.00,,,0.03,Wunderground v.1.15,2013-04-15 12:26:00,
2013-04-15 08:29:00,44.9,39.4,29.92,ESE,116,2.0,9.0,81,0.00,,,0.00,Wunderground v.1.15,2013-04-15 12:29:00,
2013-04-15 08:31:00,45.1,39.3,29.92,ESE,113,2.0,-999.0,80,0.00,,,0.03,Wunderground v.1.15,2013-04-15 12:31:00,
2013-04-15 08:35:00,45.3,39.5,29.92,SE,138,3.0,7.0,80,0.00,,,0.00,Wunderground v.1.15,2013-04-15 12:35:00,
2013-04-15 08:36:00,45.4,39.9,29.92,SE,135,3.0,-999.0,81,0.00,,,0.03,Wunderground v.1.15,2013-04-15 12:36:00,
2013-04-15 08:41:00,46.0,40.2,29.92,ESE,110,3.0,4.0,80,0.00,,,0.00,Wunderground v.1.15,2013-04-15 12:41:00,
2013-04-15 08:46:00,46.7,40.5,29.92,ESE,113,2.0,-999.0,79,0.00,,,0.03,Wunderground v.1.15,2013-04-15 12:46:00,
2013-04-15 08:47:00,46.8,40.6,29.92,ESE,117,3.0,8.0,79,0.00,,,0.00,Wunderground v.1.15,2013-04-15 12:47:00,
2013-04-15 08:51:00,47.4,41.2,29.92,SE,135,2.0,-999.0,79,0.00,,,0.03,Wunderground v.1.15,2013-04-15 12:51:00,
2013-04-15 08:52:00,47.4,41.2,29.92,ESE,115,3.0,7.0,79,0.00,,,0.00,Wunderground v.1.15,2013-04-15 12:52:00,
2013-04-15 08:56:00,47.8,41.3,29.92,SE,135,2.0,-999.0,78,0.00,,,0.03,Wunderground v.1.15,2013-04-15 12:56:00,
2013-04-15 08:57:00,47.8,41.3,29.92,SSE,154,3.0,8.0,78,0.00,,,0.00,Wunderground v.1.15,2013-04-15 12:57:00,
2013-04-15 09:01:00,48.3,41.4,29.92,East,90,2.0,-999.0,77,0.00,,,0.03,Wunderground v.1.15,2013-04-15 13:01:00,
2013-04-15 09:02:00,48.4,41.5,29.92,SE,128,3.0,3.0,77,0.00,,,0.00,Wunderground v.1.15,2013-04-15 13:02:00,
2013-04-15 09:06:00,48.8,41.9,29.93,SE,135,0.0,-999.0,77,0.00,,,0.03,Wunderground v.1.15,2013-04-15 13:06:00,
2013-04-15 09:08:00,48.9,42.0,29.92,SE,124,1.0,5.0,77,0.00,,,0.00,Wunderground v.1.15,2013-04-15 13:08:00,
2013-04-15 09:11:00,49.2,42.0,29.93,SE,135,2.0,-999.0,76,0.00,,,0.03,Wunderground v.1.15,2013-04-15 13:11:00,
2013-04-15 09:13:00,49.4,42.1,29.93,ESE,117,2.0,4.0,76,0.00,,,0.00,Wunderground v.1.15,2013-04-15 13:13:00,
2013-04-15 09:16:00,49.8,42.5,29.93,N/A,-737280,0.0,-999.0,76,0.00,,,0.03,Wunderground v.1.15,2013-04-15 13:16:00,
2013-04-15 09:19:00,50.0,42.4,29.93,SE,128,2.0,4.0,75,0.00,,,0.00,Wunderground v.1.15,2013-04-15 13:19:00,
2013-04-15 09:21:00,50.2,42.6,29.93,SE,135,1.0,-999.0,75,0.00,,,0.03,Wunderground v.1.15,2013-04-15 13:21:00,
2013-04-15 09:25:00,50.4,42.4,29.93,ESE,123,2.0,4.0,74,0.00,,,0.00,Wunderground v.1.15,2013-04-15 13:25:00,
2013-04-15 09:26:00,50.4,42.4,29.93,ESE,113,0.0,-999.0,74,0.00,,,0.03,Wunderground v.1.15,2013-04-15 13:26:00,
2013-04-15 09:30:00,50.6,42.6,29.93,WSW,250,2.0,2.0,74,0.00,,,0.00,Wunderground v.1.15,2013-04-15 13:30:00,
2013-04-15 09:31:00,50.6,42.6,29.94,SE,135,1.0,-999.0,74,0.00,,,0.03,Wunderground v.1.15,2013-04-15 13:31:00,
2013-04-15 09:36:00,50.7,42.7,29.94,SE,136,2.0,5.0,74,0.00,,,0.00,Wunderground v.1.15,2013-04-15 13:36:00,
2013-04-15 09:41:00,50.6,42.6,29.94,South,170,2.0,6.0,74,0.00,,,0.00,Wunderground v.1.15,2013-04-15 13:41:00,
2013-04-15 09:46:00,50.7,42.7,29.94,SSE,154,3.0,6.0,74,0.00,,,0.00,Wunderground v.1.15,2013-04-15 13:46:00,
2013-04-15 09:51:00,50.8,43.2,29.94,South,180,5.0,-999.0,75,0.00,,,0.03,Wunderground v.1.15,2013-04-15 13:51:00,
2013-04-15 09:52:00,50.8,42.8,29.94,SE,145,3.0,4.0,74,0.00,,,0.00,Wunderground v.1.15,2013-04-15 13:52:00,
2013-04-15 09:56:00,51.1,43.1,29.93,South,180,4.0,-999.0,74,0.00,,,0.03,Wunderground v.1.15,2013-04-15 13:56:00,
2013-04-15 09:58:00,51.2,43.2,29.93,SSE,148,3.0,8.0,74,0.00,,,0.00,Wunderground v.1.15,2013-04-15 13:58:00,
2013-04-15 10:01:00,51.5,43.5,29.93,ESE,113,2.0,-999.0,74,0.00,,,0.03,Wunderground v.1.15,2013-04-15 14:01:00,
2013-04-15 10:03:00,51.6,43.6,29.93,SSE,157,4.0,4.0,74,0.00,,,0.00,Wunderground v.1.15,2013-04-15 14:03:00,
2013-04-15 10:06:00,51.9,43.9,29.93,SSW,203,2.0,-999.0,74,0.00,,,0.03,Wunderground v.1.15,2013-04-15 14:06:00,
2013-04-15 10:09:00,52.2,44.2,29.93,SSW,208,3.0,4.0,74,0.00,,,0.00,Wunderground v.1.15,2013-04-15 14:09:00,
2013-04-15 10:11:00,52.5,44.4,29.93,SE,135,3.0,-999.0,74,0.00,,,0.03,Wunderground v.1.15,2013-04-15 14:11:00,
2013-04-15 10:15:00,53.0,44.9,29.93,East,80,2.0,6.0,74,0.00,,,0.00,Wunderground v.1.15,2013-04-15 14:15:00,
2013-04-15 10:16:00,53.2,44.8,29.92,SSE,158,4.0,-999.0,73,0.00,,,0.03,Wunderground v.1.15,2013-04-15 14:16:00,
2013-04-15 10:20:00,53.8,45.3,29.93,ESE,109,4.0,8.0,73,0.00,,,0.00,Wunderground v.1.15,2013-04-15 14:20:00,
2013-04-15 10:21:00,53.9,45.1,29.92,SSW,203,4.0,-999.0,72,0.00,,,0.03,Wunderground v.1.15,2013-04-15 14:21:00,
2013-04-15 10:25:00,54.2,45.7,29.92,SE,139,4.0,8.0,73,0.00,,,0.00,Wunderground v.1.15,2013-04-15 14:25:00,
2013-04-15 10:26:00,54.3,45.5,29.92,South,180,4.0,-999.0,72,0.00,,,0.03,Wunderground v.1.15,2013-04-15 14:26:00,
2013-04-15 10:31:00,54.5,45.7,29.93,SSE,150,4.0,4.0,72,0.00,,,0.00,Wunderground v.1.15,2013-04-15 14:31:00,
2013-04-15 10:36:00,54.9,45.7,29.92,South,180,4.0,-999.0,71,0.00,,,0.03,Wunderground v.1.15,2013-04-15 14:36:00,
2013-04-15 10:37:00,54.9,45.7,29.93,SSW,213,3.0,6.0,71,0.00,,,0.00,Wunderground v.1.15,2013-04-15 14:37:00,
2013-04-15 10:41:00,55.3,46.4,29.93,SSW,203,5.0,-999.0,72,0.00,,,0.03,Wunderground v.1.15,2013-04-15 14:41:00,
2013-04-15 10:43:00,55.5,46.2,29.93,SW,219,3.0,6.0,71,0.00,,,0.00,Wunderground v.1.15,2013-04-15 14:43:00,
2013-04-15 10:46:00,56.0,47.1,29.93,SE,135,2.0,-999.0,72,0.00,,,0.03,Wunderground v.1.15,2013-04-15 14:46:00,
2013-04-15 10:49:00,56.4,47.1,29.93,SSE,148,3.0,6.0,71,0.00,,,0.00,Wunderground v.1.15,2013-04-15 14:49:00,
2013-04-15 10:51:00,56.8,47.5,29.93,SSE,158,3.0,-999.0,71,0.00,,,0.03,Wunderground v.1.15,2013-04-15 14:51:00,
2013-04-15 10:54:00,57.2,47.5,29.92,SE,138,3.0,10.0,70,0.00,,,0.00,Wunderground v.1.15,2013-04-15 14:54:00,
2013-04-15 10:56:00,57.4,47.7,29.92,SSW,203,6.0,-999.0,70,0.00,,,0.03,Wunderground v.1.15,2013-04-15 14:56:00,
2013-04-15 11:00:00,57.8,48.1,29.92,South,183,5.0,6.0,70,0.00,,,0.00,Wunderground v.1.15,2013-04-15 15:00:00,
2013-04-15 11:01:00,57.8,48.1,29.92,South,180,2.0,-999.0,70,0.00,,,0.03,Wunderground v.1.15,2013-04-15 15:01:00,
2013-04-15 11:06:00,58.1,48.4,29.92,South,191,5.0,6.0,70,0.00,,,0.00,Wunderground v.1.15,2013-04-15 15:06:00,
2013-04-15 11:11:00,58.4,48.7,29.92,SSW,211,4.0,7.0,70,0.00,,,0.00,Wunderground v.1.15,2013-04-15 15:11:00,
2013-04-15 11:16:00,58.6,48.5,29.93,SW,226,4.0,14.0,69,0.00,,,0.00,Wunderground v.1.15,2013-04-15 15:16:00,
2013-04-15 11:21:00,58.6,48.8,29.93,SW,225,5.0,-999.0,70,0.00,,,0.03,Wunderground v.1.15,2013-04-15 15:21:00,
2013-04-15 11:22:00,58.6,48.8,29.93,SW,221,5.0,5.0,70,0.00,,,0.00,Wunderground v.1.15,2013-04-15 15:22:00,
2013-04-15 11:26:00,58.7,48.9,29.93,SW,225,3.0,-999.0,70,0.00,,,0.03,Wunderground v.1.15,2013-04-15 15:26:00,
2013-04-15 11:28:00,58.7,48.9,29.93,SSE,163,5.0,5.0,70,0.00,,,0.00,Wunderground v.1.15,2013-04-15 15:28:00,
2013-04-15 11:31:00,58.8,48.6,29.92,South,180,6.0,-999.0,69,0.00,,,0.03,Wunderground v.1.15,2013-04-15 15:31:00,
2013-04-15 11:33:00,58.8,49.0,29.93,SSW,211,4.0,9.0,70,0.00,,,0.00,Wunderground v.1.15,2013-04-15 15:33:00,
2013-04-15 11:36:00,58.9,49.1,29.93,SSE,158,4.0,-999.0,70,0.00,,,0.03,Wunderground v.1.15,2013-04-15 15:36:00,
2013-04-15 11:38:00,59.1,48.9,29.93,SSW,203,4.0,11.0,69,0.00,,,0.00,Wunderground v.1.15,2013-04-15 15:38:00,
2013-04-15 11:41:00,59.2,49.4,29.92,SSW,203,4.0,-999.0,70,0.00,,,0.03,Wunderground v.1.15,2013-04-15 15:41:00,
2013-04-15 11:43:00,59.4,49.2,29.92,SSE,157,5.0,10.0,69,0.00,,,0.00,Wunderground v.1.15,2013-04-15 15:43:00,
2013-04-15 11:46:00,59.8,49.6,29.92,SSE,158,10.0,-999.0,69,0.00,,,0.03,Wunderground v.1.15,2013-04-15 15:46:00,
2013-04-15 11:49:00,60.0,49.4,29.91,SSW,202,7.0,11.0,68,0.00,,,0.00,Wunderground v.1.15,2013-04-15 15:49:00,
2013-04-15 11:51:00,60.1,49.9,29.91,SW,225,3.0,-999.0,69,0.00,,,0.03,Wunderground v.1.15,2013-04-15 15:51:00,
2013-04-15 11:55:00,60.5,50.3,29.91,South,172,6.0,7.0,69,0.00,,,0.00,Wunderground v.1.15,2013-04-15 15:55:00,
2013-04-15 11:56:00,60.7,50.1,29.91,WSW,248,6.0,-999.0,68,0.00,,,0.03,Wunderground v.1.15,2013-04-15 15:56:00,
2013-04-15 12:00:00,61.0,50.4,29.92,SSW,195,5.0,7.0,68,0.00,,,0.00,Wunderground v.1.15,2013-04-15 16:00:00,
2013-04-15 12:01:00,61.1,50.1,29.91,SW,225,8.0,-999.0,67,0.00,,,0.03,Wunderground v.1.15,2013-04-15 16:01:00,
2013-04-15 12:06:00,61.2,50.2,29.91,SSE,157,7.0,9.0,67,0.00,,,0.00,Wunderground v.1.15,2013-04-15 16:06:00,
2013-04-15 12:11:00,61.7,51.0,29.91,South,180,5.0,-999.0,68,0.00,,,0.03,Wunderground v.1.15,2013-04-15 16:11:00,
2013-04-15 12:12:00,61.7,51.0,29.91,SE,141,6.0,6.0,68,0.00,,,0.00,Wunderground v.1.15,2013-04-15 16:12:00,
2013-04-15 12:16:00,62.3,51.2,29.91,SSW,203,6.0,-999.0,67,0.00,,,0.03,Wunderground v.1.15,2013-04-15 16:16:00,
2013-04-15 12:18:00,62.5,51.4,29.91,SSE,168,5.0,9.0,67,0.00,,,0.00,Wunderground v.1.15,2013-04-15 16:18:00,
2013-04-15 12:21:00,62.9,51.4,29.90,SE,135,7.0,-999.0,66,0.00,,,0.03,Wunderground v.1.15,2013-04-15 16:21:00,
2013-04-15 12:23:00,62.9,51.4,29.90,South,169,6.0,10.0,66,0.00,,,0.00,Wunderground v.1.15,2013-04-15 16:23:00,
2013-04-15 12:26:00,63.2,51.2,29.90,South,180,7.0,-999.0,65,0.00,,,0.03,Wunderground v.1.15,2013-04-15 16:26:00,
2013-04-15 12:29:00,63.2,51.2,29.90,WSW,239,6.0,10.0,65,0.00,,,0.00,Wunderground v.1.15,2013-04-15 16:29:00,
2013-04-15 12:31:00,63.4,51.4,29.90,SSW,203,2.0,-999.0,65,0.00,,,0.03,Wunderground v.1.15,2013-04-15 16:31:00,
2013-04-15 12:35:00,63.9,52.3,29.90,SW,225,5.0,9.0,66,0.00,,,0.00,Wunderground v.1.15,2013-04-15 16:35:00,
2013-04-15 12:36:00,64.0,52.0,29.90,South,180,8.0,-999.0,65,0.00,,,0.03,Wunderground v.1.15,2013-04-15 16:36:00,
2013-04-15 12:41:00,64.3,51.9,29.90,ESE,115,5.0,9.0,64,0.00,,,0.00,Wunderground v.1.15,2013-04-15 16:41:00,
2013-04-15 12:46:00,64.4,52.0,29.89,SW,223,6.0,9.0,64,0.00,,,0.00,Wunderground v.1.15,2013-04-15 16:46:00,
2013-04-15 12:51:00,64.7,51.8,29.90,South,180,4.0,-999.0,63,0.00,,,0.03,Wunderground v.1.15,2013-04-15 16:51:00,
2013-04-15 12:52:00,64.7,51.8,29.89,SSW,207,6.0,9.0,63,0.00,,,0.00,Wunderground v.1.15,2013-04-15 16:52:00,
2013-04-15 12:56:00,65.1,52.2,29.90,SSE,158,4.0,-999.0,63,0.00,,,0.03,Wunderground v.1.15,2013-04-15 16:56:00,
2013-04-15 12:58:00,65.2,51.8,29.90,WSW,244,5.0,9.0,62,0.00,,,0.00,Wunderground v.1.15,2013-04-15 16:58:00,
2013-04-15 13:01:00,65.4,52.0,29.90,West,270,4.0,-999.0,62,0.00,,,0.03,Wunderground v.1.15,2013-04-15 17:01:00,
2013-04-15 13:03:00,65.5,52.1,29.90,SW,221,4.0,16.0,62,0.00,,,0.00,Wunderground v.1.15,2013-04-15 17:03:00,
2013-04-15 13:06:00,65.6,51.8,29.90,SSE,158,6.0,-999.0,61,0.00,,,0.03,Wunderground v.1.15,2013-04-15 17:06:00,
2013-04-15 13:09:00,65.6,52.2,29.90,West,263,4.0,16.0,62,0.00,,,0.00,Wunderground v.1.15,2013-04-15 17:09:00,
2013-04-15 13:11:00,65.6,52.2,29.90,SE,135,4.0,-999.0,62,0.00,,,0.03,Wunderground v.1.15,2013-04-15 17:11:00,
2013-04-15 13:15:00,65.6,52.2,29.90,South,175,6.0,11.0,62,0.00,,,0.00,Wunderground v.1.15,2013-04-15 17:15:00,
2013-04-15 13:16:00,65.7,52.3,29.89,SSW,203,7.0,-999.0,62,0.00,,,0.03,Wunderground v.1.15,2013-04-15 17:16:00,
2013-04-15 13:21:00,65.9,52.9,29.90,SW,228,6.0,7.0,63,0.00,,,0.00,Wunderground v.1.15,2013-04-15 17:21:00,
2013-04-15 13:22:00,66.0,52.6,29.90,SW,230,6.0,7.0,62,0.00,,,0.00,Wunderground v.1.15,2013-04-15 17:22:00,
2013-04-15 13:23:00,66.1,52.7,29.90,SSW,200,6.0,7.0,62,0.00,,,0.00,Wunderground v.1.15,2013-04-15 17:23:00,
2013-04-15 13:25:00,66.2,52.3,29.89,SSW,196,6.0,7.0,61,0.00,,,0.00,Wunderground v.1.15,2013-04-15 17:25:00,
2013-04-15 13:26:00,66.3,52.4,29.89,SSW,194,5.0,7.0,61,0.00,,,0.00,Wunderground v.1.15,2013-04-15 17:26:00,
2013-04-15 13:31:00,66.1,52.3,29.90,SW,227,5.0,9.0,61,0.00,,,0.00,Wunderground v.1.15,2013-04-15 17:31:00,
2013-04-15 13:36:00,65.9,52.5,29.89,SSE,158,7.0,-999.0,62,0.00,,,0.03,Wunderground v.1.15,2013-04-15 17:36:00,
2013-04-15 13:37:00,65.9,52.9,29.89,SSW,202,6.0,12.0,63,0.00,,,0.00,Wunderground v.1.15,2013-04-15 17:37:00,
2013-04-15 13:41:00,65.9,52.9,29.89,SW,225,4.0,-999.0,63,0.00,,,0.03,Wunderground v.1.15,2013-04-15 17:41:00,
2013-04-15 13:46:00,65.9,52.9,29.89,South,180,8.0,-999.0,63,0.00,,,0.03,Wunderground v.1.15,2013-04-15 17:46:00,
2013-04-15 13:51:00,65.9,52.5,29.90,ESE,113,4.0,-999.0,62,0.00,,,0.03,Wunderground v.1.15,2013-04-15 17:51:00,
2013-04-15 13:56:00,66.0,53.0,29.89,SSE,158,3.0,-999.0,63,0.00,,,0.03,Wunderground v.1.15,2013-04-15 17:56:00,
2013-04-15 14:01:00,66.1,53.6,29.89,ESE,113,6.0,-999.0,64,0.00,,,0.03,Wunderground v.1.15,2013-04-15 18:01:00,
2013-04-15 14:06:00,66.2,53.2,29.88,South,180,7.0,-999.0,63,0.00,,,0.03,Wunderground v.1.15,2013-04-15 18:06:00,
2013-04-15 14:11:00,66.2,53.2,29.88,SSE,158,5.0,-999.0,63,0.00,,,0.03,Wunderground v.1.15,2013-04-15 18:11:00,
2013-04-15 14:16:00,66.2,52.8,29.88,South,180,10.0,-999.0,62,0.00,,,0.03,Wunderground v.1.15,2013-04-15 18:16:00,
2013-04-15 14:21:00,66.0,53.0,29.88,SW,225,6.0,-999.0,63,0.00,,,0.03,Wunderground v.1.15,2013-04-15 18:21:00,
2013-04-15 14:26:00,65.9,52.5,29.88,SSE,158,8.0,-999.0,62,0.00,,,0.03,Wunderground v.1.15,2013-04-15 18:26:00,
2013-04-15 14:31:00,65.7,52.3,29.88,SSE,158,11.0,-999.0,62,0.00,,,0.03,Wunderground v.1.15,2013-04-15 18:31:00,
2013-04-15 14:36:00,65.5,52.6,29.88,SSW,203,6.0,-999.0,63,0.00,,,0.03,Wunderground v.1.15,2013-04-15 18:36:00,
2013-04-15 14:41:00,65.4,52.5,29.88,SW,225,4.0,-999.0,63,0.00,,,0.03,Wunderground v.1.15,2013-04-15 18:41:00,
2013-04-15 14:46:00,65.3,52.8,29.88,SSW,203,7.0,-999.0,64,0.00,,,0.03,Wunderground v.1.15,2013-04-15 18:46:00,
2013-04-15 14:51:00,65.3,52.8,29.88,South,180,6.0,-999.0,64,0.00,,,0.03,Wunderground v.1.15,2013-04-15 18:51:00,
2013-04-15 14:56:00,65.4,52.9,29.88,South,180,7.0,-999.0,64,0.00,,,0.03,Wunderground v.1.15,2013-04-15 18:56:00,
2013-04-15 15:01:00,65.6,52.7,29.88,WSW,248,6.0,-999.0,63,0.00,,,0.03,Wunderground v.1.15,2013-04-15 19:01:00,
2013-04-15 15:06:00,65.6,52.7,29.88,South,180,8.0,-999.0,63,0.00,,,0.03,Wunderground v.1.15,2013-04-15 19:06:00,
2013-04-15 15:11:00,65.5,52.6,29.87,SW,225,4.0,-999.0,63,0.00,,,0.03,Wunderground v.1.15,2013-04-15 19:11:00,
2013-04-15 15:16:00,65.5,52.6,29.87,SSW,203,7.0,-999.0,63,0.00,,,0.03,Wunderground v.1.15,2013-04-15 19:16:00,
2013-04-15 15:21:00,65.4,52.5,29.87,SSE,158,10.0,-999.0,63,0.00,,,0.03,Wunderground v.1.15,2013-04-15 19:21:00,
2013-04-15 15:26:00,65.5,53.0,29.86,SSE,158,2.0,-999.0,64,0.00,,,0.03,Wunderground v.1.15,2013-04-15 19:26:00,
2013-04-15 15:31:00,65.6,52.7,29.86,SSW,203,4.0,-999.0,63,0.00,,,0.03,Wunderground v.1.15,2013-04-15 19:31:00,
2013-04-15 15:36:00,65.7,52.8,29.86,SSE,158,9.0,-999.0,63,0.00,,,0.03,Wunderground v.1.15,2013-04-15 19:36:00,
2013-04-15 15:41:00,65.7,52.8,29.86,South,180,8.0,-999.0,63,0.00,,,0.03,Wunderground v.1.15,2013-04-15 19:41:00,
2013-04-15 15:46:00,65.6,52.7,29.86,South,180,9.0,-999.0,63,0.00,,,0.03,Wunderground v.1.15,2013-04-15 19:46:00,
2013-04-15 15:51:00,65.5,53.0,29.86,SW,225,7.0,-999.0,64,0.00,,,0.03,Wunderground v.1.15,2013-04-15 19:51:00,
2013-04-15 15:56:00,65.5,53.0,29.86,SSW,203,9.0,-999.0,64,0.00,,,0.03,Wunderground v.1.15,2013-04-15 19:56:00,
2013-04-15 16:01:00,65.4,52.5,29.86,South,180,4.0,-999.0,63,0.00,,,0.03,Wunderground v.1.15,2013-04-15 20:01:00,
2013-04-15 16:06:00,65.5,53.0,29.86,SSW,203,6.0,-999.0,64,0.00,,,0.03,Wunderground v.1.15,2013-04-15 20:06:00,
2013-04-15 16:11:00,65.6,53.1,29.86,SSW,203,6.0,-999.0,64,0.00,,,0.03,Wunderground v.1.15,2013-04-15 20:11:00,
2013-04-15 16:16:00,65.5,53.0,29.86,SSE,158,5.0,-999.0,64,0.00,,,0.03,Wunderground v.1.15,2013-04-15 20:16:00,
2013-04-15 16:21:00,65.4,52.9,29.86,SSW,203,4.0,-999.0,64,0.00,,,0.03,Wunderground v.1.15,2013-04-15 20:21:00,
2013-04-15 16:26:00,65.3,52.8,29.86,SSE,158,5.0,-999.0,64,0.00,,,0.03,Wunderground v.1.15,2013-04-15 20:26:00,
2013-04-15 16:31:00,65.2,52.7,29.86,South,180,5.0,-999.0,64,0.00,,,0.03,Wunderground v.1.15,2013-04-15 20:31:00,
2013-04-15 16:36:00,65.2,53.1,29.86,SSE,158,4.0,-999.0,65,0.00,,,0.03,Wunderground v.1.15,2013-04-15 20:36:00,
2013-04-15 16:41:00,65.1,53.0,29.86,South,180,6.0,-999.0,65,0.00,,,0.03,Wunderground v.1.15,2013-04-15 20:41:00,
2013-04-15 16:46:00,65.0,52.9,29.86,SSW,203,3.0,-999.0,65,0.00,,,0.03,Wunderground v.1.15,2013-04-15 20:46:00,
2013-04-15 16:51:00,65.0,52.9,29.86,South,180,5.0,-999.0,65,0.00,,,0.03,Wunderground v.1.15,2013-04-15 20:51:00,
2013-04-15 16:56:00,64.9,52.8,29.86,South,180,0.0,-999.0,65,0.00,,,0.03,Wunderground v.1.15,2013-04-15 20:56:00,
2013-04-15 17:01:00,64.9,53.3,29.85,West,270,4.0,-999.0,66,0.00,,,0.03,Wunderground v.1.15,2013-04-15 21:01:00,
2013-04-15 17:06:00,64.9,53.3,29.85,SSE,158,3.0,-999.0,66,0.00,,,0.03,Wunderground v.1.15,2013-04-15 21:06:00,
2013-04-15 17:11:00,65.0,53.4,29.86,SSW,203,3.0,-999.0,66,0.00,,,0.03,Wunderground v.1.15,2013-04-15 21:11:00,
2013-04-15 17:16:00,65.0,53.4,29.86,SSW,203,3.0,-999.0,66,0.00,,,0.03,Wunderground v.1.15,2013-04-15 21:16:00,
2013-04-15 17:21:00,64.9,53.3,29.85,South,180,5.0,-999.0,66,0.00,,,0.03,Wunderground v.1.15,2013-04-15 21:21:00,
2013-04-15 17:26:00,64.9,53.3,29.85,SSE,158,7.0,-999.0,66,0.00,,,0.03,Wunderground v.1.15,2013-04-15 21:26:00,
2013-04-15 17:31:00,64.9,53.3,29.85,South,180,0.0,-999.0,66,0.00,,,0.03,Wunderground v.1.15,2013-04-15 21:31:00,
2013-04-15 17:36:00,65.1,53.9,29.85,South,180,1.0,-999.0,67,0.00,,,0.03,Wunderground v.1.15,2013-04-15 21:36:00,
2013-04-15 17:41:00,65.6,53.9,29.85,SSE,158,1.0,-999.0,66,0.00,,,0.03,Wunderground v.1.15,2013-04-15 21:41:00,
2013-04-15 17:46:00,66.3,54.2,29.85,SSW,203,5.0,-999.0,65,0.00,,,0.03,Wunderground v.1.15,2013-04-15 21:46:00,
2013-04-15 17:51:00,66.8,54.7,29.85,SSE,158,1.0,-999.0,65,0.00,,,0.03,Wunderground v.1.15,2013-04-15 21:51:00,
2013-04-15 17:56:00,66.8,53.8,29.85,SSE,158,7.0,-999.0,63,0.00,,,0.03,Wunderground v.1.15,2013-04-15 21:56:00,
2013-04-15 18:01:00,66.9,54.3,29.85,South,180,2.0,-999.0,64,0.00,,,0.03,Wunderground v.1.15,2013-04-15 22:01:00,
2013-04-15 18:06:00,66.7,54.1,29.85,SSW,203,5.0,-999.0,64,0.00,,,0.03,Wunderground v.1.15,2013-04-15 22:06:00,
2013-04-15 18:11:00,66.5,53.9,29.85,South,180,2.0,-999.0,64,0.00,,,0.03,Wunderground v.1.15,2013-04-15 22:11:00,
2013-04-15 18:16:00,66.4,54.3,29.85,SW,225,3.0,-999.0,65,0.00,,,0.03,Wunderground v.1.15,2013-04-15 22:16:00,
2013-04-15 18:21:00,66.3,54.2,29.85,SSE,158,1.0,-999.0,65,0.00,,,0.03,Wunderground v.1.15,2013-04-15 22:21:00,
2013-04-15 18:26:00,66.1,54.0,29.86,SSE,158,3.0,-999.0,65,0.00,,,0.03,Wunderground v.1.15,2013-04-15 22:26:00,
2013-04-15 18:31:00,65.8,54.1,29.86,South,180,0.0,-999.0,66,0.00,,,0.03,Wunderground v.1.15,2013-04-15 22:31:00,
2013-04-15 18:36:00,65.5,53.8,29.86,SSW,203,4.0,-999.0,66,0.00,,,0.03,Wunderground v.1.15,2013-04-15 22:36:00,
2013-04-15 18:41:00,65.3,54.1,29.86,South,180,3.0,-999.0,67,0.00,,,0.03,Wunderground v.1.15,2013-04-15 22:41:00,
2013-04-15 18:46:00,65.2,54.0,29.86,SSW,203,1.0,-999.0,67,0.00,,,0.03,Wunderground v.1.15,2013-04-15 22:46:00,
2013-04-15 18:51:00,65.1,53.9,29.86,SSW,203,3.0,-999.0,67,0.00,,,0.03,Wunderground v.1.15,2013-04-15 22:51:00,
2013-04-15 18:56:00,65.0,54.2,29.86,SSE,158,1.0,-999.0,68,0.00,,,0.03,Wunderground v.1.15,2013-04-15 22:56:00,
2013-04-15 19:01:00,65.0,54.2,29.86,SSE,158,2.0,-999.0,68,0.00,,,0.03,Wunderground v.1.15,2013-04-15 23:01:00,
2013-04-15 19:06:00,64.9,54.1,29.86,SSW,203,4.0,-999.0,68,0.00,,,0.03,Wunderground v.1.15,2013-04-15 23:06:00,
2013-04-15 19:11:00,64.7,53.9,29.86,SE,135,5.0,-999.0,68,0.00,,,0.03,Wunderground v.1.15,2013-04-15 23:11:00,
2013-04-15 19:16:00,64.7,53.9,29.86,South,180,1.0,-999.0,68,0.00,,,0.03,Wunderground v.1.15,2013-04-15 23:16:00,
2013-04-15 19:21:00,64.6,53.8,29.86,SSW,203,1.0,-999.0,68,0.00,,,0.03,Wunderground v.1.15,2013-04-15 23:21:00,
2013-04-15 19:26:00,64.5,54.1,29.86,SSW,203,3.0,-999.0,69,0.00,,,0.03,Wunderground v.1.15,2013-04-15 23:26:00,
2013-04-15 19:31:00,64.4,54.0,29.86,SSW,203,1.0,-999.0,69,0.00,,,0.03,Wunderground v.1.15,2013-04-15 23:31:00,
2013-04-15 19:36:00,64.3,54.3,29.86,South,180,0.0,-999.0,70,0.00,,,0.03,Wunderground v.1.15,2013-04-15 23:36:00,
2013-04-15 19:41:00,64.2,54.2,29.86,South,180,5.0,-999.0,70,0.00,,,0.03,Wunderground v.1.15,2013-04-15 23:41:00,
2013-04-15 19:46:00,64.1,54.1,29.86,SE,135,2.0,-999.0,70,0.00,,,0.03,Wunderground v.1.15,2013-04-15 23:46:00,
2013-04-15 19:51:00,64.1,54.1,29.86,N/A,-737280,0.0,-999.0,70,0.00,,,0.03,Wunderground v.1.15,2013-04-15 23:51:00,
2013-04-15 19:56:00,64.0,54.0,29.86,South,180,2.0,-999.0,70,0.00,,,0.03,Wunderground v.1.15,2013-04-15 23:56:00,
2013-04-15 20:01:00,63.9,54.3,29.86,WSW,248,3.0,-999.0,71,0.00,,,0.03,Wunderground v.1.15,2013-04-16 00:01:00,
2013-04-15 20:06:00,63.8,54.2,29.87,SSW,203,1.0,-999.0,71,0.00,,,0.03,Wunderground v.1.15,2013-04-16 00:06:00,
2013-04-15 20:11:00,63.7,54.1,29.87,SSE,158,0.0,-999.0,71,0.00,,,0.03,Wunderground v.1.15,2013-04-16 00:11:00,
2013-04-15 20:16:00,63.6,54.0,29.87,N/A,-737280,0.0,-999.0,71,0.00,,,0.03,Wunderground v.1.15,2013-04-16 00:16:00,
2013-04-15 20:21:00,63.5,54.3,29.87,SSW,203,2.0,-999.0,72,0.00,,,0.03,Wunderground v.1.15,2013-04-16 00:21:00,
2013-04-15 20:26:00,63.4,54.2,29.86,South,180,4.0,-999.0,72,0.00,,,0.03,Wunderground v.1.15,2013-04-16 00:26:00,
2013-04-15 20:31:00,63.4,54.2,29.86,SSW,203,3.0,-999.0,72,0.00,,,0.03,Wunderground v.1.15,2013-04-16 00:31:00,
2013-04-15 20:36:00,63.4,54.2,29.88,South,180,2.0,-999.0,72,0.00,,,0.03,Wunderground v.1.15,2013-04-16 00:36:00,
2013-04-15 20:41:00,63.3,54.1,29.88,South,180,1.0,-999.0,72,0.00,,,0.03,Wunderground v.1.15,2013-04-16 00:41:00,
2013-04-15 20:46:00,63.3,54.1,29.88,N/A,-737280,0.0,-999.0,72,0.00,,,0.03,Wunderground v.1.15,2013-04-16 00:46:00,
2013-04-15 20:51:00,63.2,54.0,29.88,N/A,-737280,0.0,-999.0,72,0.00,,,0.03,Wunderground v.1.15,2013-04-16 00:51:00,
2013-04-15 20:56:00,63.2,54.0,29.88,SSE,158,1.0,-999.0,72,0.00,,,0.03,Wunderground v.1.15,2013-04-16 00:56:00,
2013-04-15 21:01:00,63.2,54.0,29.88,SE,135,1.0,-999.0,72,0.00,,,0.03,Wunderground v.1.15,2013-04-16 01:01:00,
2013-04-15 21:06:00,63.1,54.3,29.88,SSW,203,1.0,-999.0,73,0.00,,,0.03,Wunderground v.1.15,2013-04-16 01:06:00,
2013-04-15 21:11:00,63.0,54.2,29.88,N/A,-737280,0.0,-999.0,73,0.00,,,0.03,Wunderground v.1.15,2013-04-16 01:11:00,
2013-04-15 21:16:00,62.8,54.4,29.88,N/A,-737280,0.0,-999.0,74,0.00,,,0.03,Wunderground v.1.15,2013-04-16 01:16:00,
2013-04-15 21:21:00,62.6,54.6,29.88,N/A,-737280,0.0,-999.0,75,0.00,,,0.03,Wunderground v.1.15,2013-04-16 01:21:00,
2013-04-15 21:26:00,62.3,55.0,29.89,SSE,158,0.0,-999.0,77,0.00,,,0.03,Wunderground v.1.15,2013-04-16 01:26:00,
2013-04-15 21:31:00,61.8,55.2,29.89,SSE,158,2.0,-999.0,79,0.01,,,0.03,Wunderground v.1.15,2013-04-16 01:31:00,
2013-04-15 21:36:00,61.3,55.1,29.89,SSW,203,2.0,-999.0,80,0.01,,,0.03,Wunderground v.1.15,2013-04-16 01:36:00,
2013-04-15 21:41:00,60.8,55.3,29.89,N/A,-737280,0.0,-999.0,82,0.01,,,0.03,Wunderground v.1.15,2013-04-16 01:41:00,
2013-04-15 21:46:00,60.4,55.2,29.90,SE,135,2.0,-999.0,83,0.02,,,0.03,Wunderground v.1.15,2013-04-16 01:46:00,
2013-04-15 21:51:00,60.0,55.2,29.90,SSW,203,4.0,-999.0,84,0.02,,,0.03,Wunderground v.1.15,2013-04-16 01:51:00,
2013-04-15 21:56:00,59.8,55.3,29.90,N/A,-737280,0.0,-999.0,85,0.02,,,0.03,Wunderground v.1.15,2013-04-16 01:56:00,
2013-04-15 22:01:00,59.4,55.2,29.90,N/A,-737280,0.0,-999.0,86,0.02,,,0.03,Wunderground v.1.15,2013-04-16 02:01:00,
2013-04-15 22:06:00,59.1,55.2,29.90,N/A,-737280,0.0,-999.0,87,0.02,,,0.03,Wunderground v.1.15,2013-04-16 02:06:00,
2013-04-15 22:11:00,58.9,55.4,29.90,N/A,-737280,0.0,-999.0,88,0.02,,,0.03,Wunderground v.1.15,2013-04-16 02:11:00,
2013-04-15 22:16:00,58.6,55.1,29.90,N/A,-737280,0.0,-999.0,88,0.02,,,0.03,Wunderground v.1.15,2013-04-16 02:16:00,
2013-04-15 22:21:00,58.4,55.2,29.90,N/A,-737280,0.0,-999.0,89,0.02,,,0.03,Wunderground v.1.15,2013-04-16 02:21:00,
2013-04-15 22:26:00,58.2,55.3,29.90,SSE,158,1.0,-999.0,90,0.02,,,0.03,Wunderground v.1.15,2013-04-16 02:26:00,
2013-04-15 22:31:00,58.1,55.5,29.90,SSE,158,0.0,-999.0,91,0.02,,,0.03,Wunderground v.1.15,2013-04-16 02:31:00,
2013-04-15 22:36:00,58.0,55.4,29.90,N/A,-737280,0.0,-999.0,91,0.02,,,0.03,Wunderground v.1.15,2013-04-16 02:36:00,
2013-04-15 22:41:00,57.8,55.2,29.90,N/A,-737280,0.0,-999.0,91,0.02,,,0.03,Wunderground v.1.15,2013-04-16 02:41:00,
2013-04-15 22:46:00,57.7,55.4,29.89,SE,135,1.0,-999.0,92,0.01,,,0.03,Wunderground v.1.15,2013-04-16 02:46:00,
2013-04-15 22:51:00,57.5,55.2,29.88,SE,135,0.0,-999.0,92,0.01,,,0.03,Wunderground v.1.15,2013-04-16 02:51:00,
2013-04-15 22:56:00,57.3,55.3,29.88,N/A,-737280,0.0,-999.0,93,0.01,,,0.03,Wunderground v.1.15,2013-04-16 02:56:00,
2013-04-15 23:01:00,57.2,55.2,29.88,N/A,-737280,0.0,-999.0,93,0.01,,,0.03,Wunderground v.1.15,2013-04-16 03:01:00,
2013-04-15 23:06:00,57.2,55.2,29.87,N/A,-737280,0.0,-999.0,93,0.01,,,0.03,Wunderground v.1.15,2013-04-16 03:06:00,
2013-04-15 23:11:00,57.2,55.2,29.87,N/A,-737280,0.0,-999.0,93,0.01,,,0.03,Wunderground v.1.15,2013-04-16 03:11:00,
2013-04-15 23:16:00,57.2,55.2,29.87,N/A,-737280,0.0,-999.0,93,0.01,,,0.03,Wunderground v.1.15,2013-04-16 03:16:00,
2013-04-15 23:21:00,57.2,55.2,29.87,SE,135,0.0,-999.0,93,0.01,,,0.03,Wunderground v.1.15,2013-04-16 03:21:00,
2013-04-15 23:26:00,57.2,55.2,29.87,N/A,-737280,0.0,-999.0,93,0.01,,,0.03,Wunderground v.1.15,2013-04-16 03:26:00,
2013-04-15 23:31:00,57.3,55.6,29.87,South,180,0.0,-999.0,94,0.00,,,0.03,Wunderground v.1.15,2013-04-16 03:31:00,
2013-04-15 23:36:00,57.3,55.3,29.86,East,90,2.0,-999.0,93,0.00,,,0.03,Wunderground v.1.15,2013-04-16 03:36:00,
2013-04-15 23:41:00,57.3,55.3,29.86,SSE,158,2.0,-999.0,93,0.00,,,0.03,Wunderground v.1.15,2013-04-16 03:41:00,
2013-04-15 23:46:00,57.4,55.4,29.86,N/A,-737280,0.0,-999.0,93,0.00,,,0.03,Wunderground v.1.15,2013-04-16 03:46:00,
2013-04-15 23:51:00,57.5,55.2,29.86,SW,225,1.0,-999.0,92,0.00,,,0.03,Wunderground v.1.15,2013-04-16 03:51:00,
2013-04-15 23:56:00,57.5,55.2,29.86,South,180,2.0,-999.0,92,0.00,,,0.03,Wunderground v.1.15,2013-04-16 03:56:00,